カタログに戻る

STARLINK-35229

運用中通信SSO
NORAD 65600·PAYLOAD·🇺🇸 United States

打ち上げ Sep 13, 2025 から Cape Canaveral Space Force Station

Loading…

次のパス (今後24時間)

TLE

最新Source: CelesTrak SupGP

元期: Sep 14, 2026, 20:38 UTC

1 65600C 25207J   26257.86020833  .02243300  00000+0  10307+0 0  2575
2 65600  97.2844 320.4977 0001737  92.8778 332.9829 15.19329373    14

AllMySatでSTARLINK-35229をリアルタイム追跡

Download on the App Store